Location: Arena
(42.5007°N, 9.4650°E)
Time: 04:47:54
(UTC+00:00)

Envisat - Visible Passes

Search period start: 26 February 2021 00:00
Search period end: 08 March 2021 00:00
Orbit: 764 x 766 km, 98.1° (Epoch: 25 February)

Date Brightness Start Highest point End Pass type
(mag) Time Alt. Az. Time Alt. Az. Time Alt. Az.
26 Feb 3.8 04:47:14 10° NNE 04:52:15 56° E 04:57:13 10° S visible
26 Feb 6.5 17:44:45 10° WSW 17:46:53 12° W 17:49:01 10° WNW visible
27 Feb 5.3 04:11:02 10° NE 04:15:13 25° E 04:19:23 10° SSE visible
28 Feb 6.2 03:36:31 10° ENE 03:38:00 11° E 03:39:28 10° ESE visible
28 Feb 3.0 05:12:33 10° NNE 05:17:40 85° WNW 05:22:44 10° SSW visible
01 Mar 4.3 04:35:55 10° NNE 04:40:46 44° E 04:45:36 10° S visible
02 Mar 5.7 03:59:58 10° NE 04:03:42 20° E 04:07:24 10° SE visible
03 Mar 3.2 05:01:08 10° NNE 05:06:14 77° ESE 05:11:18 10° S visible
04 Mar 4.8 04:24:40 10° NNE 04:29:18 34° E 04:33:53 10° SSE visible
05 Mar 6.0 03:49:05 10° NE 03:52:09 16° E 03:55:12 10° SE visible
06 Mar 3.6 04:49:45 10° NNE 04:54:47 60° E 04:59:48 10° S visible
06 Mar 6.8 17:47:51 10° WSW 17:49:28 11° W 17:51:05 10° WNW visible
07 Mar 5.2 04:13:28 10° NE 04:17:48 27° E 04:22:05 10° SSE visible
